Time,TemperatureF,DewpointF,PressureIn,WindDirection,WindDirectionDegrees,WindSpeedMPH,WindSpeedGustMPH,Humidity,HourlyPrecipIn,Conditions,Clouds,dailyrainin,SoftwareType,DateUTC
2013-09-17 00:06:00,56.4,55.0,25.79,South,190,19.0,20.0,95,0.00,,,0.00,weatherlink.com 1.10,2013-09-17 06:06:00,
2013-09-17 00:21:00,56.7,55.0,25.79,SW,225,15.0,22.0,95,0.00,,,0.00,weatherlink.com 1.10,2013-09-17 06:21:00,
2013-09-17 00:36:00,57.0,55.0,25.79,WSW,240,10.0,20.0,94,0.00,,,0.00,weatherlink.com 1.10,2013-09-17 06:36:00,
2013-09-17 00:51:00,57.3,56.0,25.78,WNW,299,9.0,23.0,94,0.00,,,0.00,weatherlink.com 1.10,2013-09-17 06:51:00,
2013-09-17 01:06:00,57.5,56.0,25.78,SW,229,17.0,21.0,94,0.00,,,0.00,weatherlink.com 1.10,2013-09-17 07:06:00,
2013-09-17 01:22:00,57.8,56.0,25.77,SW,226,20.0,21.0,94,0.00,,,0.00,weatherlink.com 1.10,2013-09-17 07:22:00,
2013-09-17 01:38:00,57.9,56.0,25.77,SW,224,16.0,20.0,93,0.00,,,0.00,weatherlink.com 1.10,2013-09-17 07:38:00,
2013-09-17 01:52:00,58.1,56.0,25.77,South,176,13.0,22.0,93,0.00,,,0.00,weatherlink.com 1.10,2013-09-17 07:52:00,
2013-09-17 02:07:00,58.2,56.0,25.76,WSW,255,11.0,18.0,93,0.00,,,0.00,weatherlink.com 1.10,2013-09-17 08:07:00,
2013-09-17 02:22:00,58.4,56.0,25.76,South,188,9.0,19.0,93,0.00,,,0.00,weatherlink.com 1.10,2013-09-17 08:22:00,
2013-09-17 02:37:00,58.6,57.0,25.75,SSW,195,9.0,19.0,93,0.00,,,0.00,weatherlink.com 1.10,2013-09-17 08:37:00,
2013-09-17 02:52:00,58.8,57.0,25.75,SW,225,8.0,18.0,93,0.00,,,0.00,weatherlink.com 1.10,2013-09-17 08:52:00,
2013-09-17 03:07:00,58.9,57.0,25.75,SW,218,14.0,18.0,93,0.00,,,0.00,weatherlink.com 1.10,2013-09-17 09:07:00,
2013-09-17 03:22:00,59.0,57.0,25.74,SSW,206,12.0,20.0,93,0.00,,,0.00,weatherlink.com 1.10,2013-09-17 09:22:00,
2013-09-17 03:37:00,59.0,57.0,25.74,SSE,166,9.0,16.0,93,0.00,,,0.00,weatherlink.com 1.10,2013-09-17 09:37:00,
2013-09-17 03:52:00,59.1,57.0,25.73,WSW,243,6.0,15.0,93,0.00,,,0.00,weatherlink.com 1.10,2013-09-17 09:52:00,
2013-09-17 04:07:00,59.0,57.0,25.73,SW,228,7.0,15.0,93,0.00,,,0.00,weatherlink.com 1.10,2013-09-17 10:07:00,
2013-09-17 04:22:00,58.9,57.0,25.72,West,281,8.0,14.0,93,0.00,,,0.00,weatherlink.com 1.10,2013-09-17 10:22:00,
2013-09-17 04:37:00,58.4,57.0,25.73,SSW,212,6.0,11.0,94,0.00,,,0.00,weatherlink.com 1.10,2013-09-17 10:37:00,
2013-09-17 04:52:00,57.5,56.0,25.72,West,259,5.0,9.0,94,0.00,,,0.00,weatherlink.com 1.10,2013-09-17 10:52:00,
2013-09-17 05:07:00,56.7,55.0,25.72,SW,234,3.0,6.0,95,0.00,,,0.00,weatherlink.com 1.10,2013-09-17 11:07:00,
2013-09-17 05:22:00,55.9,55.0,25.73,WSW,257,5.0,6.0,96,0.00,,,0.00,weatherlink.com 1.10,2013-09-17 11:22:00,
2013-09-17 05:37:00,55.1,54.0,25.72,WSW,252,3.0,5.0,96,0.00,,,0.00,weatherlink.com 1.10,2013-09-17 11:37:00,
2013-09-17 05:52:00,54.8,54.0,25.73,SW,225,1.0,4.0,97,0.00,,,0.00,weatherlink.com 1.10,2013-09-17 11:52:00,
2013-09-17 06:07:00,54.8,54.0,25.72,SSW,212,4.0,5.0,97,0.00,,,0.00,weatherlink.com 1.10,2013-09-17 12:07:00,
2013-09-17 06:22:00,54.1,53.0,25.73,SW,234,1.0,1.0,97,0.00,,,0.00,weatherlink.com 1.10,2013-09-17 12:22:00,
2013-09-17 06:37:00,53.3,53.0,25.72,SW,228,2.0,2.0,97,0.00,,,0.00,weatherlink.com 1.10,2013-09-17 12:37:00,
2013-09-17 06:52:00,52.7,52.0,25.73,WSW,253,2.0,3.0,97,0.00,,,0.00,weatherlink.com 1.10,2013-09-17 12:52:00,
2013-09-17 07:07:00,52.1,51.0,25.73,West,267,2.0,3.0,97,0.00,,,0.00,weatherlink.com 1.10,2013-09-17 13:07:00,
2013-09-17 07:22:00,54.1,54.0,25.72,West,259,3.0,4.0,98,0.00,,,0.00,weatherlink.com 1.10,2013-09-17 13:22:00,
2013-09-17 07:37:00,55.1,55.0,25.72,WSW,253,6.0,6.0,98,0.00,,,0.00,weatherlink.com 1.10,2013-09-17 13:37:00,
2013-09-17 07:52:00,56.0,56.0,25.72,West,262,1.0,7.0,98,0.00,,,0.00,weatherlink.com 1.10,2013-09-17 13:52:00,
2013-09-17 08:07:00,57.4,56.0,25.72,West,262,4.0,10.0,96,0.00,,,0.00,weatherlink.com 1.10,2013-09-17 14:07:00,
2013-09-17 08:22:00,58.9,57.0,25.72,West,270,6.0,11.0,93,0.00,,,0.00,weatherlink.com 1.10,2013-09-17 14:22:00,
2013-09-17 08:37:00,60.7,58.0,25.72,WSW,257,8.0,10.0,89,0.00,,,0.00,weatherlink.com 1.10,2013-09-17 14:37:00,
2013-09-17 08:52:00,63.3,58.0,25.72,WSW,256,6.0,11.0,84,0.00,,,0.00,weatherlink.com 1.10,2013-09-17 14:52:00,
2013-09-17 09:08:00,65.3,58.0,25.72,West,267,5.0,12.0,77,0.00,,,0.00,weatherlink.com 1.10,2013-09-17 15:08:00,
2013-09-17 09:23:00,68.2,58.0,25.72,West,276,6.0,11.0,69,0.00,,,0.00,weatherlink.com 1.10,2013-09-17 15:23:00,
2013-09-17 09:38:00,70.5,58.0,25.71,West,278,5.0,12.0,65,0.00,,,0.00,weatherlink.com 1.10,2013-09-17 15:38:00,
2013-09-17 09:53:00,72.2,57.0,25.71,WSW,249,9.0,11.0,60,0.00,,,0.00,weatherlink.com 1.10,2013-09-17 15:53:00,
2013-09-17 10:08:00,74.7,57.0,25.71,WNW,288,4.0,9.0,54,0.00,,,0.00,weatherlink.com 1.10,2013-09-17 16:08:00,
2013-09-17 10:23:00,76.2,57.0,25.71,WNW,300,5.0,12.0,51,0.00,,,0.00,weatherlink.com 1.10,2013-09-17 16:23:00,
2013-09-17 10:38:00,77.6,56.0,25.70,West,267,2.0,10.0,48,0.00,,,0.00,weatherlink.com 1.10,2013-09-17 16:38:00,
2013-09-17 10:53:00,78.8,56.0,25.70,WNW,291,8.0,12.0,45,0.00,,,0.00,weatherlink.com 1.10,2013-09-17 16:53:00,
2013-09-17 11:08:00,80.0,55.0,25.70,WNW,290,7.0,13.0,42,0.00,,,0.00,weatherlink.com 1.10,2013-09-17 17:08:00,
2013-09-17 11:23:00,80.9,54.0,25.70,WNW,285,6.0,12.0,40,0.00,,,0.00,weatherlink.com 1.10,2013-09-17 17:23:00,
2013-09-17 11:38:00,82.0,54.0,25.69,West,260,4.0,12.0,38,0.00,,,0.00,weatherlink.com 1.10,2013-09-17 17:38:00,
2013-09-17 11:53:00,82.6,54.0,25.69,WNW,290,3.0,10.0,38,0.00,,,0.00,weatherlink.com 1.10,2013-09-17 17:53:00,
2013-09-17 12:08:00,84.0,54.0,25.68,NW,308,5.0,10.0,36,0.00,,,0.00,weatherlink.com 1.10,2013-09-17 18:08:00,
2013-09-17 12:23:00,84.4,54.0,25.68,WNW,291,5.0,10.0,35,0.00,,,0.00,weatherlink.com 1.10,2013-09-17 18:23:00,
2013-09-17 12:38:00,85.8,54.0,25.67,WSW,255,2.0,10.0,33,0.00,,,0.00,weatherlink.com 1.10,2013-09-17 18:38:00,
2013-09-17 12:53:00,87.0,54.0,25.66,WSW,243,8.0,9.0,32,0.00,,,0.00,weatherlink.com 1.10,2013-09-17 18:53:00,
2013-09-17 13:08:00,86.6,52.0,25.66,NW,315,4.0,12.0,30,0.00,,,0.00,weatherlink.com 1.10,2013-09-17 19:08:00,
2013-09-17 13:23:00,86.6,52.0,25.65,WSW,252,6.0,11.0,30,0.00,,,0.00,weatherlink.com 1.10,2013-09-17 19:23:00,
2013-09-17 13:38:00,87.4,50.0,25.65,WNW,294,7.0,13.0,28,0.00,,,0.00,weatherlink.com 1.10,2013-09-17 19:38:00,
2013-09-17 13:54:00,87.8,52.0,25.64,WSW,238,5.0,13.0,29,0.00,,,0.00,weatherlink.com 1.10,2013-09-17 19:54:00,
2013-09-17 14:09:00,88.1,48.0,25.64,West,266,8.0,16.0,25,0.00,,,0.00,weatherlink.com 1.10,2013-09-17 20:09:00,
2013-09-17 14:24:00,88.4,47.0,25.63,West,267,11.0,13.0,24,0.00,,,0.00,weatherlink.com 1.10,2013-09-17 20:24:00,
2013-09-17 14:39:00,88.4,46.0,25.63,SW,236,6.0,14.0,23,0.00,,,0.00,weatherlink.com 1.10,2013-09-17 20:39:00,
2013-09-17 14:54:00,88.4,46.0,25.62,WSW,248,9.0,15.0,23,0.00,,,0.00,weatherlink.com 1.10,2013-09-17 20:54:00,
2013-09-17 15:09:00,88.2,46.0,25.62,West,280,10.0,15.0,23,0.00,,,0.00,weatherlink.com 1.10,2013-09-17 21:09:00,
2013-09-17 15:24:00,88.3,45.0,25.62,SW,235,9.0,13.0,22,0.00,,,0.00,weatherlink.com 1.10,2013-09-17 21:24:00,
2013-09-17 15:39:00,88.1,46.0,25.61,WSW,238,7.0,13.0,23,0.00,,,0.00,weatherlink.com 1.10,2013-09-17 21:39:00,
2013-09-17 15:54:00,88.4,46.0,25.61,WSW,247,9.0,13.0,23,0.00,,,0.00,weatherlink.com 1.10,2013-09-17 21:54:00,
2013-09-17 16:09:00,87.9,46.0,25.61,SW,218,9.0,15.0,23,0.00,,,0.00,weatherlink.com 1.10,2013-09-17 22:09:00,
2013-09-17 16:24:00,87.9,47.0,25.61,WSW,242,11.0,16.0,24,0.00,,,0.00,weatherlink.com 1.10,2013-09-17 22:24:00,
2013-09-17 16:39:00,87.1,47.0,25.61,WSW,254,6.0,19.0,25,0.00,,,0.00,weatherlink.com 1.10,2013-09-17 22:39:00,
2013-09-17 16:54:00,87.0,48.0,25.61,WSW,253,11.0,18.0,26,0.00,,,0.00,weatherlink.com 1.10,2013-09-17 22:54:00,
2013-09-17 17:09:00,86.6,49.0,25.61,West,270,13.0,20.0,27,0.00,,,0.00,weatherlink.com 1.10,2013-09-17 23:09:00,
2013-09-17 17:24:00,85.9,49.0,25.61,West,277,9.0,15.0,28,0.00,,,0.00,weatherlink.com 1.10,2013-09-17 23:24:00,
2013-09-17 17:39:00,84.6,49.0,25.60,SW,218,4.0,13.0,29,0.00,,,0.00,weatherlink.com 1.10,2013-09-17 23:39:00,
2013-09-17 17:54:00,82.5,50.0,25.60,SW,226,4.0,9.0,32,0.00,,,0.00,weatherlink.com 1.10,2013-09-17 23:54:00,
2013-09-17 18:09:00,81.2,50.0,25.60,SW,235,4.0,6.0,34,0.00,,,0.00,weatherlink.com 1.10,2013-09-18 00:09:00,
2013-09-17 18:24:00,79.7,51.0,25.59,SW,233,3.0,5.0,37,0.00,,,0.00,weatherlink.com 1.10,2013-09-18 00:24:00,
2013-09-17 18:39:00,78.5,51.0,25.59,WSW,250,5.0,6.0,38,0.00,,,0.00,weatherlink.com 1.10,2013-09-18 00:39:00,
2013-09-17 18:54:00,77.0,51.0,25.59,SW,225,2.0,4.0,40,0.00,,,0.00,weatherlink.com 1.10,2013-09-18 00:54:00,
2013-09-17 19:09:00,75.6,51.0,25.59,WSW,238,4.0,4.0,42,0.00,,,0.00,weatherlink.com 1.10,2013-09-18 01:09:00,
2013-09-17 19:24:00,74.6,51.0,25.59,SW,218,5.0,7.0,43,0.00,,,0.00,weatherlink.com 1.10,2013-09-18 01:24:00,
2013-09-17 19:39:00,72.9,51.0,25.59,West,260,6.0,8.0,46,0.00,,,0.00,weatherlink.com 1.10,2013-09-18 01:39:00,
2013-09-17 19:54:00,72.0,51.0,25.60,SW,233,3.0,6.0,48,0.00,,,0.00,weatherlink.com 1.10,2013-09-18 01:54:00,
2013-09-17 20:09:00,70.4,51.0,25.60,SW,225,4.0,7.0,50,0.00,,,0.00,weatherlink.com 1.10,2013-09-18 02:09:00,
2013-09-17 20:24:00,70.1,50.0,25.60,SSW,206,2.0,7.0,49,0.00,,,0.00,weatherlink.com 1.10,2013-09-18 02:24:00,
2013-09-17 20:39:00,70.0,50.0,25.61,WSW,243,5.0,8.0,49,0.00,,,0.00,weatherlink.com 1.10,2013-09-18 02:39:00,
2013-09-17 20:54:00,70.3,50.0,25.61,WSW,238,6.0,8.0,48,0.00,,,0.00,weatherlink.com 1.10,2013-09-18 02:54:00,
2013-09-17 21:24:00,68.9,50.0,25.60,SSW,210,4.0,10.0,52,0.00,,,0.00,weatherlink.com 1.10,2013-09-18 03:24:00,
2013-09-17 21:39:00,67.5,50.0,25.61,WSW,245,3.0,7.0,54,0.00,,,0.00,weatherlink.com 1.10,2013-09-18 03:39:00,
2013-09-17 21:54:00,66.9,50.0,25.61,WSW,244,2.0,6.0,54,0.00,,,0.00,weatherlink.com 1.10,2013-09-18 03:54:00,
2013-09-17 22:09:00,66.2,50.0,25.61,WSW,238,3.0,6.0,56,0.00,,,0.00,weatherlink.com 1.10,2013-09-18 04:09:00,
2013-09-17 22:24:00,65.7,50.0,25.61,WNW,294,7.0,8.0,58,0.00,,,0.00,weatherlink.com 1.10,2013-09-18 04:24:00,
2013-09-17 22:39:00,65.8,50.0,25.62,West,271,6.0,8.0,58,0.00,,,0.00,weatherlink.com 1.10,2013-09-18 04:39:00,
2013-09-17 22:54:00,67.5,50.0,25.61,West,259,4.0,11.0,53,0.00,,,0.00,weatherlink.com 1.10,2013-09-18 04:54:00,
2013-09-17 23:09:00,68.1,50.0,25.61,SSW,201,6.0,9.0,53,0.00,,,0.00,weatherlink.com 1.10,2013-09-18 05:09:00,
2013-09-17 23:24:00,68.5,50.0,25.59,South,183,7.0,10.0,52,0.00,,,0.00,weatherlink.com 1.10,2013-09-18 05:24:00,
2013-09-17 23:39:00,68.0,50.0,25.59,SW,222,6.0,10.0,53,0.00,,,0.00,weatherlink.com 1.10,2013-09-18 05:39:00,
2013-09-17 23:54:00,66.5,50.0,25.60,SW,224,3.0,5.0,56,0.00,,,0.00,weatherlink.com 1.10,2013-09-18 05:54:00,